Preview of NWS' New Version of Forecast
This preview is not operational and should not be used for support decisions.

Regional Weather Roundup (RWR)

Issued by National Weather Service (NWS)

                            
000
ASUS43 KMKX 210821
RWRWI 

WISCONSIN REGIONAL WEATHER ROUNDUP
NATIONAL WEATHER SERVICE MILWAUKEE/SULLIVAN WI
300 AM CDT SAT SEP 21 2019

NOTE: "FAIR" INDICATES FEW OR NO CLOUDS BELOW 12,000 FEET WITH NO
SIGNIFICANT WEATHER AND/OR OBSTRUCTIONS TO VISIBILITY.

WIZ001-002-006>008-014>016-023>028-210900-
NORTHWEST WISCONSIN
  
CITY           SKY/WX    TMP DP  RH WIND       PRES   REMARKS
SUPERIOR ARPT  FOG       52  52 100 NE3       29.91F VSB 1/2          
ASHLAND        FAIR      56  55  97 CALM      29.92F FOG              
HAYWARD        FAIR      70  67  90 S7        29.95F FOG              
SIREN          FAIR      73  66  79 S14       29.90F                  
CUMBERLAND     FAIR      68  66  94 SE8       29.95F                  
RICE LAKE      FAIR      69  55  60 SE9       29.95F HAZE             
CHETEK         FAIR      68  68 100 SE5       29.96F                  
LADYSMITH      FAIR      69  69 100 SE6       29.99F                  
EAU CLAIRE     FAIR      72  66  81 SE8       29.95F                  
MENOMONIE      FAIR      65  64  97 SE8       29.94F                  
NEW RICHMOND   FAIR      70  66  85 S7        29.92F                  
OSCEOLA        FAIR      71  69  92 SE6       29.93F                  
$$
 
WIZ003>005-009-010-017-018-210900-
NORTH CENTRAL WISCONSIN
  
CITY           SKY/WX    TMP DP  RH WIND       PRES   REMARKS
MANITOWISH WTR CLOUDY    67  67 100 S7        30.02F                  
ARBOR VITAE    CLOUDY    72  67  84 S6        30.03F                  
WOODRUFF       CLOUDY    72  67  84 S6        30.03F                  
RHINELANDER    CLOUDY    68  66  93 S6        30.05F FOG              
EAGLE RIVER    CLOUDY    68  67  99 S3        30.05F FOG              
LAND O LAKES   CLOUDY    68  66  93 S5        30.05F FOG              
PHILLIPS       FAIR      68  68 100 S7        30.01F                  
TOMAHAWK       CLOUDY    66  65  96 CALM      30.04F FOG              
MEDFORD        FAIR      66  65  97 SE7       30.02F FOG              
MERRILL        CLOUDY    67  67 100 SE3       30.04F FOG              
$$
 
WIZ029-030-035-036-043>047-210900-
CENTRAL WISCONSIN
  
CITY           SKY/WX    TMP DP  RH WIND       PRES   REMARKS
WAUSAU         FAIR      66  66 100 E5        30.02F FOG              
MOSINEE        FAIR     N/A N/A N/A SE6       30.04F HAZE             
MARSHFIELD     FAIR      68  66  93 SE6       30.02F FOG              
STEVENS POINT  FAIR      65  65 100 SE3       30.04F FOG              
WAUPACA          N/A     67  66  97 CALM      30.04S FOG              
WAUTOMA        FAIR      64  64 100 CALM      30.04F FOG              
WISC RAPIDS    NOT AVBL                                               
CAMP DOUGLAS   FAIR      65  65 100 SE5       30.00F                  
$$
 
WIZ011>013-019>022-031-037>040-048>050-210900-
NORTHEAST WISCONSIN
  
CITY           SKY/WX    TMP DP  RH WIND       PRES   REMARKS
ANTIGO         FOG       65  65 100 S7        30.07F VSB 1/2          
SHAWANO        FAIR      64  63  97 CALM      30.05F FOG              
OCONTO         CLOUDY    61  61  99 CALM      30.06F VSB 3/4          
STURGEON BAY   CLOUDY    64  62  93 S9        30.08S                  
GREEN BAY      FAIR      63  61  93 CALM      30.06F FOG              
MANITOWOC      FOG       64  64 100 SE5       30.08F VSB 1/2          
APPLETON       FAIR      66  64  94 SE3       30.04F FOG              
CLINTONVILLE   FAIR      63  61  94 CALM      30.04F FOG              
OSHKOSH        FAIR      67  64  90 S6        30.04F FOG              
$$
 
WIZ032>034-041-042-053>061-210900-
SOUTHWEST WISCONSIN
  
CITY           SKY/WX    TMP DP  RH WIND       PRES   REMARKS
LA CROSSE      NOT AVBL                                               
SPARTA         FAIR      70  65  83 S8        29.99S                  
VIROQUA        FAIR      69  69 100 SE7       30.01S                  
BOSCOBEL       MOCLDY    75  68  78 VRB3      30.00S                  
PRAIRIE DU CHI FAIR      71  67  87 SE6       29.98F                  
PLATTEVILLE    FAIR      70  70 100 SE6       30.02F                  
$$

WIZ056-057-062-063-064-067-068-210900-
SOUTH CENTRAL WISCONSIN
  
CITY           SKY/WX    TMP DP  RH WIND       PRES   REMARKS
REEDSBURG      FAIR      71  70  96 S6        30.02S                  
BARABOO/DELLS  FAIR      68  66  93 S7        30.03F                  
LONE ROCK      FAIR      71  68  90 E5        30.02R                  
MINERAL POINT  FAIR      70  70 100 SE6       30.03F                  
MADISON        FAIR      72  67  84 S6        30.03S                  
MIDDLETON      FAIR      73  66  80 S6        30.05S                  
WATERTOWN      FAIR      67  67 100 SE3       30.06S                  
MONROE         FAIR      71  67  90 S7        30.05S                  
JANESVILLE     FAIR      70  70 100 S6        30.05S                  
$$
 
WIZ051-052-058>065-066-070>072-210900-
SOUTHEAST WISCONSIN
  
CITY           SKY/WX    TMP DP  RH WIND       PRES   REMARKS
MILWAUKEE      FAIR      70  65  84 SE6       30.07F                  
WAUKESHA       FAIR      68  63  83 S5        30.09S                  
MILWAUKEE/TIMM FAIR      64  61  88 CALM      30.08S FOG              
RACINE         FAIR      72  66  81 S6        30.09F                  
KENOSHA        FAIR      68  67  96 CALM      30.08F FOG              
FOND DU LAC    FAIR      68  65  90 S6        30.06S                  
SHEBOYGAN      FOG       63  62  97 CALM      30.07F VSB<1/4          
WEST BEND      FAIR      61  61 100 CALM      30.07F FOG              
JUNEAU         FAIR      67  66  97 CALM      30.07S FOG              
$$

LSZ147-162-210900-
LAKE SUPERIOR
  
STATION/POSITION TIME  TEMP    WIND        PRES    WAVE
                       AIR SEA DIR/SP/G            HT/PER
                 (UTC) (F)     (DEG/KT/KT) (MB)    (FT/S)
W MID LAKE BUOY  0750   60 54  150/  8/  8 1013.8F   1/ 3
DEVILS ISLAND    0800   55      60/  1/  2 1013.1F
SAXON HARBOR     0730   59      30/  1/  3 1013.5F
$$
 
LMZ867-665-643>646-210900-
LAKE MICHIGAN
  
STATION/POSITION TIME  TEMP    WIND        PRES    WAVE
                       AIR SEA DIR/SP/G            HT/PER
                 (UTC) (F)     (DEG/KT/KT) (MB)    (FT/S)
CHAMBERS ISLAND  0740   64      CALM  /  2   N/A
N MID LAKE BUOY  0800   64     160/  4/  6 1019.0
NORTHPORT PIER   0740   64     130/  4/  7 1017.9F
KEWAUNEE LAKESHO 0736   62      CALM  /  3 1018.0S
SHEBOYGAN LAKESH 0800   63     140/  5/  6 1018.4F
PORT WASHINGTON  0730   64      CALM  /  1 1019.6S
ATWATER BUOY     0600   63     150/  6/  6 1019.0    0
S MID LAKE BUOY  0800   71 69  170/ 10/ 12 1018.8
KENOSHA   LAKESH 0800   69     180/  9/ 11 1018.3
$$

TC  - TEMPERATURE IN CELSIUS
VSB - VISIBILITY IN STATUTE MILES
WCI - WIND CHILL INDEX
HX  - HEAT INDEX